This is the latest recevied weather packets stored in our database for station/object SQ9RHX-13. If no packets are shown the sender has not sent any weather packets the latest 10 day(s).
| Time | Temp. | Humidity | Pressure | Rain* | Wind** | Luminosity | Snow |
|---|---|---|---|---|---|---|---|
| 1777718703 | 25° C | 28% | 1027.5 hPa | 0 mm | - | 672 W/m² | - |
| 1777718402 | 23.89° C | 29% | 1027.6 hPa | 0 mm | - | 670 W/m² | - |
| 1777718105 | 23.89° C | 29% | 1027.7 hPa | 0 mm | - | 671 W/m² | - |
| 1777717803 | 23.89° C | 29% | 1027.5 hPa | 0 mm | - | 667 W/m² | - |
| 1777717502 | 23.89° C | 31% | 1027.5 hPa | 0 mm | - | 666 W/m² | - |
| 1777717203 | 24.44° C | 29% | 1027.9 hPa | 0 mm | - | 665 W/m² | - |
| 1777716904 | 23.89° C | 31% | 1027.9 hPa | 0 mm | - | 664 W/m² | - |
| 1777716604 | 24.44° C | 29% | 1027.9 hPa | 0 mm | - | 660 W/m² | - |
| 1777716303 | 23.89° C | 28% | 1028 hPa | 0 mm | - | 660 W/m² | - |
| 1777716003 | 23.89° C | 29% | 1028.1 hPa | 0 mm | - | 656 W/m² | - |
| 1777715704 | 23.89° C | 31% | 1028 hPa | 0 mm | - | 652 W/m² | - |
| 1777715405 | 23.33° C | 31% | 1028.1 hPa | 0 mm | - | 647 W/m² | - |
| 1777715103 | 23.33° C | 31% | 1028.2 hPa | 0 mm | - | 646 W/m² | - |
| 1777714804 | 22.78° C | 31% | 1028.5 hPa | 0 mm | - | 641 W/m² | - |
| 1777714503 | 22.78° C | 32% | 1028.3 hPa | 0 mm | - | 634 W/m² | - |
| 1777714205 | 22.78° C | 32% | 1028.5 hPa | 0 mm | - | 626 W/m² | - |
| 1777713903 | 23.33° C | 32% | 1028.4 hPa | 0 mm | - | 619 W/m² | - |
| 1777713603 | 23.33° C | 33% | 1028.4 hPa | 0 mm | - | 610 W/m² | - |
| 1777713304 | 22.78° C | 32% | 1028.6 hPa | 0 mm | - | 608 W/m² | - |
| 1777713006 | 23.33° C | 33% | 1028.7 hPa | 0 mm | - | 603 W/m² | - |
| 1777712703 | 22.78° C | 32% | 1028.6 hPa | 0 mm | - | 588 W/m² | - |
| 1777712403 | 22.78° C | 30% | 1028.6 hPa | 0 mm | - | 585 W/m² | - |
| 1777712103 | 23.33° C | 34% | 1028.6 hPa | 0 mm | - | 579 W/m² | - |
| 1777711803 | 23.89° C | 34% | 1028.8 hPa | 0 mm | - | 568 W/m² | - |
| 1777711503 | 23.33° C | 34% | 1028.7 hPa | 0 mm | - | 561 W/m² | - |
* Rain latest hour (hover to see other rain measurements)
** Current wind speed in m/s (hover to see current wind gust speed)